When you browse on this site, cookies collect data to enhance your experience and personalize the content and advertising you see.
Visit our Privacy Policy to learn more. By continuing to use the site, you agree to this use of cookies and data.
  • In Czech Republic
  • List of Countries
  • For 7 days
  • Water Temperature
  • Satellite Maps
  • Weather Map
  • Weather Widgets
  • user-avatar
    Login

    Hourly Weather Fria

    Today, 11 December, Tuesday

    Time Temperature Precipitation Wind Pressure Humidity
    00:00 +24°C° 0 mm 0 mps 755 mmHg 82%
    01:00 +24°C° 0 mm 0 mps 754 mmHg 84%
    02:00 +23°C° 0 mm 0 mps 754 mmHg 87%
    03:00 +25°C° 0 mm 1 mps 754 mmHg 88%
    04:00 +25°C° 0 mm 1 mps 754 mmHg 89%
    05:00 +25°C° 0 mm 1 mps 754 mmHg 90%
    06:00 +26°C° 0 mm 1 mps 754 mmHg 83%
    07:00 +28°C° 0 mm 1 mps 755 mmHg 76%
    08:00 +29°C° 0 mm 1 mps 755 mmHg 69%
    09:00 +31°C° 0 mm 1 mps 755 mmHg 59%
    10:00 +34°C° 0 mm 1 mps 755 mmHg 50%
    11:00 +36°C° 0 mm 1 mps 754 mmHg 40%
    12:00 +37°C° 0 mm 2 mps 754 mmHg 38%
    13:00 +38°C° 0 mm 2 mps 753 mmHg 35%
    14:00 +39°C° 0 mm 2 mps 752 mmHg 33%
    15:00 +37°C° 0 mm 2 mps 752 mmHg 38%
    16:00 +35°C° 0 mm 3 mps 752 mmHg 43%
    17:00 +34°C° 0 mm 3 mps 752 mmHg 48%
    18:00 +31°C° 0 mm 3 mps 753 mmHg 56%
    19:00 +30°C° 0 mm 2 mps 753 mmHg 64%
    20:00 +28°C° 0 mm 2 mps 754 mmHg 72%
    21:00 +28°C° 0.1 mm 1 mps 754 mmHg 75%
    22:00 +27°C° 0.1 mm 1 mps 754 mmHg 78%
    23:00 +27°C° 0.1 mm 1 mps 754 mmHg 81%

    Tomorrow, 12 December, Wednesday

    Time Temperature Precipitation Wind Pressure Humidity
    00:00 +26°C° 0.5 mm 1 mps 754 mmHg 82%
    01:00 +26°C° 0.5 mm 1 mps 754 mmHg 83%
    02:00 +24°C° 0.5 mm 0 mps 754 mmHg 84%
    03:00 +25°C° 0.6 mm 1 mps 754 mmHg 85%
    04:00 +25°C° 0.6 mm 1 mps 754 mmHg 86%
    05:00 +25°C° 0.6 mm 1 mps 754 mmHg 87%
    06:00 +26°C° 0 mm 1 mps 754 mmHg 81%
    07:00 +26°C° 0 mm 0 mps 754 mmHg 74%
    08:00 +27°C° 0 mm 0 mps 755 mmHg 67%
    09:00 +31°C° 0 mm 1 mps 755 mmHg 59%
    10:00 +33°C° 0 mm 1 mps 754 mmHg 51%
    11:00 +35°C° 0 mm 1 mps 754 mmHg 42%
    12:00 +36°C° 0 mm 2 mps 753 mmHg 41%
    13:00 +36°C° 0 mm 2 mps 753 mmHg 39%
    14:00 +37°C° 0 mm 3 mps 752 mmHg 38%
    15:00 +35°C° 0 mm 3 mps 752 mmHg 42%
    16:00 +34°C° 0 mm 3 mps 752 mmHg 46%
    17:00 +33°C° 0 mm 3 mps 752 mmHg 50%
    18:00 +31°C° 0 mm 2 mps 753 mmHg 56%
    19:00 +29°C° 0 mm 2 mps 753 mmHg 62%
    20:00 +28°C° 0 mm 1 mps 754 mmHg 68%
    21:00 +27°C° 0 mm 1 mps 754 mmHg 71%
    22:00 +27°C° 0 mm 1 mps 754 mmHg 73%
    23:00 +26°C° 0 mm 1 mps 754 mmHg 76%

    Day after tomorrow, 13 December, Thursday

    Time Temperature Precipitation Wind Pressure Humidity
    00:00 +26°C° 0.1 mm 1 mps 754 mmHg 78%
    01:00 +26°C° 0.1 mm 1 mps 753 mmHg 80%
    02:00 +26°C° 0.1 mm 1 mps 753 mmHg 81%
    03:00 +25°C° 0.3 mm 1 mps 753 mmHg 83%
    04:00 +23°C° 0.3 mm 0 mps 753 mmHg 84%
    05:00 +23°C° 0.3 mm 0 mps 753 mmHg 85%
    06:00 +24°C° 0.4 mm 0 mps 754 mmHg 80%
    07:00 +26°C° 0.4 mm 0 mps 754 mmHg 74%
    08:00 +27°C° 0.4 mm 0 mps 755 mmHg 68%
    09:00 +31°C° 0 mm 1 mps 755 mmHg 60%
    10:00 +33°C° 0 mm 1 mps 755 mmHg 53%
    11:00 +36°C° 0 mm 1 mps 755 mmHg 45%
    12:00 +36°C° 0 mm 2 mps 754 mmHg 46%
    13:00 +36°C° 0 mm 2 mps 753 mmHg 47%
    14:00 +35°C° 0 mm 2 mps 752 mmHg 48%
    15:00 +34°C° 0.3 mm 3 mps 753 mmHg 53%
    16:00 +33°C° 0.3 mm 3 mps 753 mmHg 59%
    17:00 +31°C° 0.3 mm 3 mps 753 mmHg 64%
    18:00 +30°C° 1.1 mm 2 mps 753 mmHg 71%
    19:00 +28°C° 1.1 mm 2 mps 754 mmHg 77%
    20:00 +27°C° 1.1 mm 1 mps 755 mmHg 84%
    21:00 +27°C° 0.2 mm 1 mps 755 mmHg 85%
    22:00 +26°C° 0.2 mm 1 mps 755 mmHg 85%
    23:00 +24°C° 0.2 mm 0 mps 755 mmHg 86%

    14 December, Friday

    Time Temperature Precipitation Wind Pressure Humidity
    00:00 +24°C° 0 mm 0 mps 755 mmHg 86%
    01:00 +24°C° 0 mm 0 mps 754 mmHg 87%
    02:00 +23°C° 0 mm 0 mps 754 mmHg 88%
    03:00 +23°C° 0 mm 0 mps 754 mmHg 89%
    04:00 +23°C° 0 mm 0 mps 754 mmHg 89%
    05:00 +25°C° 0 mm 1 mps 754 mmHg 90%
    06:00 +26°C° 0 mm 1 mps 754 mmHg 85%
    07:00 +27°C° 0 mm 1 mps 755 mmHg 80%
    08:00 +28°C° 0 mm 1 mps 755 mmHg 75%
    09:00 +31°C° 0 mm 1 mps 755 mmHg 64%
    10:00 +33°C° 0 mm 1 mps 755 mmHg 54%
    11:00 +36°C° 0 mm 2 mps 755 mmHg 44%
    12:00 +37°C° 0 mm 2 mps 754 mmHg 41%
    13:00 +37°C° 0 mm 1 mps 753 mmHg 39%
    14:00 +37°C° 0 mm 1 mps 752 mmHg 36%
    15:00 +37°C° 0 mm 2 mps 752 mmHg 41%
    16:00 +36°C° 0 mm 2 mps 752 mmHg 46%
    17:00 +34°C° 0 mm 3 mps 753 mmHg 51%
    18:00 +31°C° 0.2 mm 2 mps 753 mmHg 61%
    19:00 +30°C° 0.2 mm 2 mps 754 mmHg 70%
    20:00 +28°C° 0.2 mm 1 mps 755 mmHg 80%
    21:00 +28°C° 0 mm 1 mps 755 mmHg 83%
    22:00 +27°C° 0 mm 1 mps 755 mmHg 86%
    23:00 +27°C° 0 mm 1 mps 755 mmHg 89%

    15 December, Saturday

    Time Temperature Precipitation Wind Pressure Humidity
    00:00 +26°C° 0 mm 1 mps 754 mmHg 90%
    01:00 +26°C° 0 mm 1 mps 754 mmHg 91%
    02:00 +26°C° 0 mm 1 mps 754 mmHg 92%
    03:00 +26°C° 0 mm 1 mps 754 mmHg 92%
    04:00 +25°C° 0 mm 1 mps 754 mmHg 93%
    05:00 +25°C° 0 mm 1 mps 754 mmHg 93%
    06:00 +26°C° 0 mm 1 mps 755 mmHg 87%
    07:00 +27°C° 0 mm 1 mps 755 mmHg 82%
    08:00 +28°C° 0 mm 1 mps 756 mmHg 76%
    09:00 +31°C° 0 mm 1 mps 755 mmHg 62%
    10:00 +34°C° 0 mm 2 mps 755 mmHg 48%
    11:00 +37°C° 0 mm 2 mps 755 mmHg 34%
    12:00 +37°C° 0 mm 2 mps 754 mmHg 31%
    13:00 +38°C° 0 mm 3 mps 753 mmHg 28%
    14:00 +39°C° 0 mm 3 mps 753 mmHg 25%
    15:00 +37°C° 0 mm 3 mps 753 mmHg 30%
    16:00 +36°C° 0 mm 2 mps 753 mmHg 35%
    17:00 +34°C° 0 mm 2 mps 753 mmHg 40%
    18:00 +32°C° 0 mm 2 mps 753 mmHg 50%
    19:00 +30°C° 0 mm 1 mps 754 mmHg 59%
    20:00 +28°C° 0 mm 1 mps 754 mmHg 69%
    21:00 +27°C° 0 mm 1 mps 754 mmHg 73%
    22:00 +27°C° 0 mm 1 mps 754 mmHg 77%
    23:00 +26°C° 0 mm 1 mps 754 mmHg 80%

    16 December, Sunday

    Time Temperature Precipitation Wind Pressure Humidity
    00:00 +26°C° 0 mm 1 mps 754 mmHg 83%
    01:00 +25°C° 0 mm 1 mps 754 mmHg 85%
    02:00 +23°C° 0 mm 0 mps 753 mmHg 87%
    03:00 +25°C° 0 mm 1 mps 753 mmHg 87%
    04:00 +24°C° 0 mm 1 mps 754 mmHg 87%
    05:00 +24°C° 0 mm 1 mps 754 mmHg 88%
    06:00 +26°C° 0 mm 1 mps 754 mmHg 81%
    07:00 +27°C° 0 mm 1 mps 755 mmHg 74%
    08:00 +27°C° 0 mm 0 mps 755 mmHg 66%
    09:00 +31°C° 0 mm 1 mps 755 mmHg 55%
    10:00 +33°C° 0 mm 1 mps 755 mmHg 43%
    11:00 +36°C° 0 mm 1 mps 754 mmHg 32%
    12:00 +37°C° 0 mm 2 mps 754 mmHg 29%
    13:00 +38°C° 0 mm 2 mps 753 mmHg 27%
    14:00 +39°C° 0 mm 2 mps 752 mmHg 24%
    15:00 +37°C° 0 mm 2 mps 752 mmHg 30%
    16:00 +35°C° 0 mm 2 mps 753 mmHg 37%
    17:00 +34°C° 0 mm 3 mps 753 mmHg 43%
    18:00 +31°C° 0 mm 2 mps 753 mmHg 55%
    19:00 +29°C° 0 mm 2 mps 754 mmHg 67%
    20:00 +27°C° 0 mm 1 mps 754 mmHg 79%
    21:00 +27°C° 0 mm 1 mps 754 mmHg 83%
    22:00 +26°C° 0 mm 1 mps 754 mmHg 86%
    23:00 +26°C° 0 mm 1 mps 754 mmHg 90%
    Show more